Theta_e
326 326 327 327 328 328 328 329 329 328 329 329 329 329 330 332 331 329 320 328 328 331 330 322 319 316 315 309 310 305 297 294 297 299 301 306 304 308 310 311 311 314 313 317 328
325 325 325 326 326 327 327 328 327 328 328 328 329 328 329 330 327 322 330 335 334 331 326 318 315 315 308 307 307 301 295 297 301 300 299 302 302 305 305 306 309 313 321 324 327
323 324 324 324 325 326 327 326 327 327 327 327 327 328 328 330 315 316 335 336 334 330 324 320 317 312 305 306 304 301 297 301 303 302 303 303 303 303 303 301 307 310 319 322 322
321 322 323 324 324 325 325 326 326 326 327 326 326 327 327 324 299 321 330 335 335 326 319 317 314 306 302 302 306 300 304 304 306 304 303 301 303 303 301 303 307 309 323 322 322
320 320 321 323 324 324 324 325 326 326 326 325 325 326 319 310 310 328 331 332 328 323 320 315 310 308 301 303 305 301 303 306 306 304 303 304 302 302 303 306 306 313 323 322 322
318 319 319 321 323 324 324 324 325 325 325 325 325 325 312 304 321 327 328 326 324 322 318 316 311 311 306 304 302 304 305 305 306 305 304 303 302 302 303 304 304 314 318 321 322
317 318 318 319 321 323 323 323 323 324 324 324 325 320 312 308 322 324 326 324 324 321 317 317 314 308 308 304 307 306 300 302 303 304 303 304 300 299 304 304 304 303 310 317 321
316 317 318 318 319 320 322 323 322 322 323 323 323 313 304 319 319 322 322 319 321 322 319 317 317 311 307 308 304 299 300 294 301 304 305 302 296 302 306 303 303 304 302 306 315
315 316 316 317 318 318 320 321 321 321 323 322 311 306 299 318 313 319 320 315 316 317 317 318 313 308 305 301 299 300 295 294 297 303 302 300 296 302 306 304 303 302 303 302 306
314 314 316 316 317 317 318 320 320 320 317 315 311 300 301 304 312 316 318 317 313 311 308 309 308 302 301 300 291 294 292 295 294 298 299 297 296 300 303 303 301 301 302 302 302
313 314 314 315 316 317 315 310 305 303 306 298 299 297 300 310 315 312 317 313 311 307 302 306 300 295 299 301 299 295 293 292 292 299 297 295 296 299 301 301 300 302 301 302 305
312 313 314 314 315 316 310 303 302 307 297 303 302 301 306 309 303 308 316 305 303 299 303 299 295 298 303 302 300 295 293 295 296 299 297 296 296 299 301 302 303 303 303 302 303
311 311 312 313 314 311 306 304 310 308 296 297 301 300 300 306 300 303 310 306 299 297 299 295 295 301 300 297 297 296 293 293 294 296 298 296 294 296 301 302 303 305 305 306 306
310 310 311 312 306 305 302 308 310 310 289 291 295 299 302 303 296 307 311 306 301 297 296 297 299 297 296 295 297 292 297 296 294 293 288 296 285 292 294 298 300 302 304 305 307
309 310 310 311 299 299 302 308 311 304 276 292 294 305 302 297 298 301 308 303 297 297 297 293 295 295 295 296 298 293 297 294 294 293 291 291 287 289 291 291 295 299 300 302 304
309 309 309 306 301 302 305 308 305 286 276 288 295 294 295 296 296 302 300 303 303 297 298 296 299 298 297 298 299 298 295 293 293 293 284 289 288 286 288 292 293 297 297 298 298
308 308 306 305 296 303 307 301 284 278 289 286 289 293 292 292 293 295 296 295 291 287 288 293 293 296 300 296 299 297 290 284 283 283 282 288 286 289 291 295 295 296 296 296 296
308 308 306 303 303 304 301 289 278 284 283 291 292 292 289 291 292 291 292 289 294 290 286 284 283 293 298 297 293 294 292 285 278 279 281 285 283 288 296 298 298 298 297 296 297
307 301 300 302 304 303 293 279 280 283 289 288 291 288 288 291 290 292 290 289 292 294 284 286 287 295 297 301 299 293 290 295 283 275 278 282 286 291 294 293 294 294 295 295 297
298 297 296 303 304 298 287 282 283 290 291 292 285 289 284 287 286 289 288 292 290 296 295 290 284 292 296 299 300 296 297 287 287 279 276 280 281 285 289 291 293 292 293 295 295
297 289 296 303 302 291 281 282 286 292 294 289 287 287 287 287 287 287 287 288 293 293 295 290 288 286 292 292 291 293 290 292 291 283 279 275 279 287 291 292 292 292 294 294 296
290 283 297 302 286 285 283 285 291 290 295 294 292 288 287 289 287 287 285 289 294 295 290 292 289 284 287 293 295 292 291 289 285 283 282 281 281 292 292 292 292 292 294 294 296
287 288 298 296 280 282 285 286 289 290 291 292 290 291 290 288 286 288 288 291 295 294 292 292 287 280 284 289 292 288 289 289 287 285 283 282 283 292 294 291 293 294 294 296 299
288 282 288 290 288 284 283 283 285 291 291 292 291 290 289 287 287 287 286 291 295 295 297 296 287 282 279 281 288 286 288 289 287 283 285 285 286 291 292 293 295 296 297 295 293
285 281 284 280 282 285 285 284 283 285 290 294 290 290 288 285 284 285 286 289 294 296 294 292 283 284 284 287 288 289 288 288 286 287 284 286 285 288 293 295 296 297 294 293 292
283 283 284 281 284 283 285 282 284 286 289 286 287 290 290 286 287 284 286 288 291 294 292 293 283 284 280 286 286 283 287 289 288 288 288 287 287 294 296 295 290 291 290 289 289
293 291 289 287 284 283 283 284 284 289 290 292 291 290 289 290 292 294 294 293 294 293 292 290 282 282 281 283 285 280 284 287 288 290 290 286 290 293 290 288 287 287 287 286 286
Wind_Speed
16 18 17 16 14 12 12 10 9 8 7 5 4 3 2 3 3 3 4 4 1 6 8 6 6 7 3 3 2 3 4 2 2 4 6 3 1 3 0 5 2 3 4 3 12
14 15 17 16 15 13 12 11 10 9 9 7 5 3 2 2 3 8 4 5 2 3 4 5 6 9 4 2 2 4 3 7 1 2 2 5 3 4 2 3 1 3 4 4 12
16 15 15 17 16 15 14 12 11 10 9 9 7 5 3 5 1 6 15 14 9 4 2 1 3 2 2 1 2 3 5 5 3 3 2 3 5 4 1 2 5 6 6 6 5
18 16 15 15 16 16 16 14 12 11 10 9 9 7 8 2 8 1 3 18 11 5 3 1 1 1 2 3 3 1 6 3 2 1 1 1 2 7 1 5 0 6 12 8 11
17 16 16 15 15 16 17 15 14 12 11 10 9 10 6 4 7 2 2 7 7 5 7 5 4 3 3 2 4 3 4 3 4 2 4 2 5 4 7 10 6 2 12 14 11
18 16 17 16 15 16 16 16 15 14 12 10 9 10 3 13 6 6 9 7 7 4 4 6 6 5 2 2 2 2 4 6 3 4 3 4 5 5 6 4 4 5 10 11 13
19 17 16 17 16 16 15 16 16 15 13 11 9 4 7 10 1 5 8 6 5 7 6 3 2 5 5 2 1 4 4 5 3 3 4 4 7 8 9 5 9 8 9 10 14
20 19 16 16 17 17 15 15 15 14 12 12 9 3 7 6 6 2 3 4 6 3 4 1 2 3 2 3 2 2 1 3 4 5 6 4 12 6 9 6 10 11 9 9 13
18 17 19 16 16 16 14 13 14 15 13 9 4 4 6 5 6 6 5 7 5 3 2 3 4 2 1 4 1 3 10 6 5 3 3 4 7 5 8 9 10 10 9 9 12
18 18 17 15 15 15 15 12 12 10 8 3 2 5 5 5 6 7 2 9 5 5 4 3 3 4 3 7 15 9 5 4 6 2 2 5 10 8 7 8 10 10 9 8 11
19 19 18 16 14 15 12 5 5 8 14 7 8 3 1 5 6 8 7 6 6 4 11 6 5 20 12 9 7 3 4 6 1 1 3 4 10 12 8 10 11 13 9 9 10
19 18 19 18 17 16 9 6 10 6 11 11 3 9 2 4 4 5 14 9 8 9 8 4 20 9 6 9 9 6 6 9 3 1 1 4 16 16 17 17 16 15 13 11 8
20 21 20 19 18 11 11 19 6 5 4 12 6 6 4 3 6 11 17 9 6 10 17 16 7 12 11 6 12 12 14 7 4 1 3 4 18 16 21 14 14 15 15 16 17
23 22 21 19 11 8 14 9 5 4 4 6 15 7 5 7 6 6 14 10 6 19 7 12 14 9 10 13 12 15 9 4 7 3 9 5 12 11 6 16 12 17 18 20 21
23 22 23 24 6 16 7 8 9 3 14 15 11 7 10 17 7 9 4 3 10 11 8 10 11 16 13 24 15 14 8 10 13 13 2 5 7 12 5 7 14 14 14 16 15
21 25 25 18 3 9 8 10 8 11 12 12 15 17 15 12 4 6 5 5 1 2 5 4 2 5 9 7 19 7 5 4 5 9 12 19 10 12 9 8 4 6 9 3 1
23 24 22 12 16 8 12 9 11 16 8 9 16 21 28 16 11 9 16 14 11 8 12 7 9 3 1 11 10 10 8 4 7 9 14 9 11 18 6 10 6 4 3 5 6
23 22 20 12 10 10 13 11 17 17 8 4 14 26 24 18 15 5 16 17 15 6 5 4 5 11 7 22 13 17 12 5 7 5 2 5 10 11 14 9 9 8 4 3 7
20 9 9 10 13 10 13 18 15 19 15 11 17 22 15 13 13 14 19 19 16 18 11 6 6 3 9 5 8 10 13 8 3 1 3 6 8 9 10 2 6 11 5 5 5
8 9 12 14 13 12 13 18 11 9 15 14 11 16 16 24 12 22 17 17 8 21 4 8 3 2 5 5 8 6 8 7 6 5 4 6 8 10 5 8 8 8 8 6 4
8 8 9 13 12 9 11 11 7 5 9 24 11 11 19 20 19 25 17 2 12 12 15 6 3 2 1 12 12 5 2 7 1 4 6 3 8 7 9 9 13 10 9 8 6
6 9 10 13 12 5 13 8 12 8 11 11 13 5 18 24 23 21 13 16 11 16 19 7 5 5 5 1 3 3 4 5 5 6 5 1 7 5 8 7 9 8 7 5 4
8 4 7 12 12 9 2 11 5 15 15 15 16 9 9 16 14 11 8 5 14 15 22 12 5 4 2 1 3 4 6 4 3 1 4 7 3 7 10 6 5 10 6 4 8
5 5 5 8 8 8 16 18 10 14 9 10 5 7 11 15 3 12 6 5 15 16 11 12 6 8 10 5 7 8 11 11 6 2 1 2 3 11 9 9 7 6 7 9 12
2 5 5 11 11 6 13 8 16 8 14 13 15 12 14 10 5 8 6 6 8 10 7 11 7 3 0 4 4 7 8 16 12 8 8 3 0 9 6 2 7 5 7 9 10
6 5 1 3 11 23 18 15 15 8 16 11 9 29 25 17 17 18 13 8 15 14 11 4 5 4 2 4 3 3 8 16 13 11 7 12 11 13 9 3 7 8 9 9 8
3 2 2 12 15 18 19 16 26 22 5 16 13 14 20 17 8 17 8 8 15 15 11 9 6 4 5 2 5 5 14 12 8 6 10 9 5 8 10 11 7 9 9 8 8
Wind_Direction
222 220 214 213 210 203 200 194 196 203 210 229 244 261 263 198 211 216 230 222 173 323 333 322 6 348 3 319 329 75 65 218 263 358 294 338 357 345 101 107 56 18 148 257 144
222 219 219 214 210 205 202 196 191 198 206 209 216 234 235 207 247 225 223 265 239 307 346 30 356 342 347 301 321 98 136 211 228 173 321 328 1 331 135 107 63 357 355 104 138
219 216 214 217 212 205 200 198 187 190 202 202 204 196 158 155 271 231 202 201 217 196 226 204 297 334 282 360 238 174 203 200 232 182 162 333 329 314 293 232 201 210 185 174 159
221 215 213 213 213 210 203 192 189 187 195 202 202 178 138 243 218 216 269 208 198 173 169 154 271 328 219 220 254 200 252 201 246 206 222 233 279 326 280 246 167 246 177 173 183
216 216 218 212 210 209 206 193 187 186 190 201 207 155 121 206 239 231 31 171 141 175 188 182 165 178 208 232 334 202 259 263 182 239 257 239 250 227 270 270 308 204 162 191 195
212 208 213 215 212 208 204 203 188 185 189 196 203 171 162 229 182 183 119 130 156 180 193 168 194 199 229 240 187 323 285 284 298 272 245 227 251 150 261 263 298 159 201 197 205
210 207 205 209 212 208 200 199 198 187 190 190 191 163 228 214 331 166 140 164 177 181 176 190 224 182 158 287 17 271 297 301 238 224 247 186 275 218 248 279 281 250 235 215 216
206 203 204 201 204 209 198 192 197 192 186 190 159 134 241 203 224 140 89 73 70 63 120 202 63 107 207 293 353 223 186 238 267 202 245 168 256 261 255 244 253 265 233 233 226
208 196 196 196 198 199 197 191 190 197 182 171 106 151 237 153 154 181 154 150 97 48 61 114 84 165 153 156 169 206 242 210 268 4 316 188 283 301 267 256 262 261 257 232 245
199 191 184 185 188 190 191 184 201 190 179 92 48 104 269 208 150 145 147 146 132 119 65 116 107 194 182 184 222 220 226 222 201 320 13 292 285 305 299 306 281 272 269 263 238
199 186 182 179 178 184 171 149 158 198 185 185 166 225 189 162 131 166 155 139 129 175 194 177 194 222 203 216 240 121 211 218 359 79 340 283 288 288 283 286 287 287 265 258 260
199 195 184 182 180 181 155 197 186 140 180 226 208 209 74 153 127 164 146 171 179 197 182 172 228 203 176 178 212 213 219 230 274 289 246 293 284 286 283 270 258 254 263 261 259
190 195 189 186 182 173 188 203 131 174 168 209 176 206 211 160 187 193 170 173 179 198 192 207 215 176 183 178 202 217 219 198 223 350 234 307 283 274 265 257 256 245 236 244 245
186 195 188 182 182 173 211 180 154 206 181 192 191 242 186 136 245 178 184 167 213 210 179 219 236 187 203 219 194 230 187 198 244 212 257 143 283 270 257 259 253 254 244 240 248
194 186 191 180 145 190 163 152 151 80 219 174 170 173 158 167 139 207 175 121 187 186 175 211 171 191 190 217 193 240 149 184 220 223 182 193 258 276 290 273 270 269 260 249 255
195 178 191 192 170 181 151 151 155 212 215 168 151 168 159 192 169 124 131 74 53 171 223 243 354 202 213 155 185 141 104 163 184 217 234 236 215 271 237 219 292 291 329 245 7
182 183 185 177 202 151 155 155 205 223 145 166 169 167 179 176 163 164 177 181 183 169 206 203 227 262 319 198 181 166 147 209 209 201 231 188 193 237 273 274 210 232 340 66 71
180 178 191 190 169 157 173 203 209 195 175 257 167 173 182 160 194 142 170 197 207 159 129 197 237 193 207 230 198 195 193 192 222 195 183 127 216 247 227 249 248 180 173 151 92
170 176 185 189 166 176 186 211 209 181 189 164 160 171 180 177 172 170 188 199 193 187 175 186 227 130 234 242 196 192 209 147 173 8 109 201 266 294 260 200 99 119 141 119 83
166 168 195 170 166 176 211 210 224 216 161 151 180 178 172 184 162 187 178 196 175 184 158 179 165 225 278 215 220 224 163 169 209 201 207 239 253 227 190 187 140 140 157 144 146
158 181 166 159 156 201 213 214 188 234 175 188 181 170 195 178 193 191 192 167 153 168 175 136 156 160 317 202 212 202 245 209 136 187 206 194 250 230 200 164 156 169 166 160 140
152 167 165 152 192 185 206 164 179 208 237 191 171 145 187 183 191 192 207 192 161 150 179 164 157 189 203 343 14 80 213 228 229 193 242 144 265 346 171 144 134 144 140 151 165
138 98 170 159 199 205 170 195 209 186 208 185 179 184 165 171 187 178 166 165 159 166 167 159 171 132 208 161 184 196 180 163 184 177 218 214 265 356 38 78 117 127 151 130 46
119 153 150 171 214 213 196 185 198 217 228 218 191 119 118 170 189 176 142 163 174 178 162 146 169 184 208 184 136 195 201 190 152 191 249 319 172 79 32 3 25 56 36 56 55
119 193 182 166 197 192 183 184 175 183 207 217 209 180 158 154 121 162 129 120 170 177 161 164 186 185 139 167 144 192 184 184 192 185 145 193 333 294 280 260 293 77 72 68 55
140 150 142 212 177 186 187 198 192 177 191 212 215 188 176 171 185 173 148 156 170 166 165 180 172 161 115 139 130 166 193 196 200 195 196 209 213 178 248 132 83 79 80 70 58
119 105 205 171 173 184 201 189 203 184 249 208 219 161 188 195 174 168 150 119 146 172 165 156 127 151 183 223 91 280 221 199 198 201 203 205 192 154 148 123 94 80 68 59 41